Location: Buckeye Ditch
(40.9104°N, 122.9517°W)
Time: 13:10:38
(UTC+00:00)

Transit 2A Rocket - All Passes

Search period start: 18 May 2025 00:00
Search period end: 28 May 2025 00:00
Orbit: 591 x 895 km, 66.7° (Epoch: 17 May)

Date Brightness Start Highest point End Pass type
(mag) Time Alt. Az. Time Alt. Az. Time Alt. Az.
18 May - 03:04:03 10° NNE 03:06:10 13° NE 03:08:19 10° ENE daylight
18 May - 04:44:28 10° NNW 04:49:06 87° ENE 04:54:08 10° SSE visible
18 May - 06:30:32 10° W 06:30:52 10° WSW 06:31:13 10° WSW visible
18 May - 19:17:45 10° SSW 19:22:09 65° ESE 19:26:25 10° NE daylight
18 May - 21:02:23 10° W 21:04:54 15° NW 21:07:24 10° N daylight
19 May - 03:59:28 10° NNW 04:03:55 46° ENE 04:08:43 10° SE visible
19 May - 05:42:32 10° WNW 05:46:01 20° WSW 05:49:41 10° SSW visible
19 May - 18:33:14 10° S 18:37:09 31° ESE 18:40:58 10° NE daylight
19 May - 20:15:48 10° WSW 20:19:28 26° NW 20:23:06 10° N daylight
20 May - 03:14:45 10° N 03:18:38 26° NE 03:22:45 10° ESE daylight
20 May - 04:56:42 10° NW 05:01:03 39° WSW 05:05:45 10° S visible
20 May - 17:49:38 10° SE 17:52:15 15° ESE 17:54:49 10° ENE daylight
20 May - 19:29:55 10° SW 19:34:11 48° WNW 19:38:21 10° NNE daylight
21 May - 02:30:26 10° N 02:33:11 16° NE 02:36:05 10° E daylight
21 May - 04:11:20 10° NNW 04:16:00 75° WSW 04:21:03 10° SSE visible
21 May - 18:44:36 10° SSW 18:49:02 83° ESE 18:53:20 10° NNE daylight
21 May - 20:30:06 10° WNW 20:31:56 12° NW 20:33:46 10° NNW daylight
22 May - 03:26:17 10° NNW 03:30:51 58° ENE 03:35:49 10° SE daylight
22 May - 05:09:51 10° WNW 05:12:51 17° WSW 05:15:58 10° SSW visible
22 May - 17:59:51 10° S 18:03:59 39° ESE 18:07:59 10° NE daylight
22 May - 19:43:05 10° W 19:46:26 21° NW 19:49:46 10° N daylight
23 May - 02:41:27 10° N 02:45:36 32° NE 02:50:02 10° ESE daylight
23 May - 04:23:44 10° NW 04:27:54 31° WSW 04:32:22 10° S visible
23 May - 17:15:51 10° SSE 17:19:03 20° ESE 17:22:09 10° ENE daylight
23 May - 18:57:00 10° SW 19:01:06 38° NW 19:05:08 10° NNE daylight
24 May - 01:56:56 10° N 02:00:12 19° NE 02:03:39 10° E daylight
24 May - 03:38:14 10° NW 03:42:52 60° WSW 03:47:54 10° SSE daylight
24 May - 18:11:29 10° SSW 18:15:53 78° WNW 18:20:11 10° NNE daylight
24 May - 19:58:27 10° NW 19:58:58 10° NW 19:59:30 10° NNW daylight
25 May - 01:13:16 10° NNE 01:14:40 11° NE 01:16:04 10° ENE daylight
25 May - 02:53:04 10° NNW 02:57:45 72° ENE 03:02:49 10° SE daylight
25 May - 04:37:23 10° W 04:39:37 13° WSW 04:41:57 10° SW visible
25 May - 17:26:32 10° S 17:30:48 51° ESE 17:34:58 10° NE daylight
25 May - 19:10:28 10° W 19:13:24 18° NW 19:16:21 10° N daylight
26 May - 02:08:09 10° NNW 02:12:31 39° NE 02:17:13 10° ESE daylight
26 May - 03:50:48 10° NW 03:54:43 25° WSW 03:58:54 10° SSW daylight
26 May - 16:42:14 10° SSE 16:45:49 25° ESE 16:49:20 10° NE daylight
26 May - 18:24:07 10° WSW 18:28:01 31° NW 18:31:51 10° N daylight
27 May - 01:23:30 10° N 01:27:11 22° NE 01:31:03 10° E daylight
27 May - 03:05:09 10° NW 03:09:43 48° WSW 03:14:39 10° S daylight
27 May - 15:59:14 10° SE 16:00:57 12° ESE 16:02:38 10° E daylight
27 May - 17:38:25 10° SW 17:42:44 60° WNW 17:47:00 10° NNE daylight
